Date String (YYYY-MM-DD hh:mm:ss) UTC,Instrument flags,Ambient pressure (hPa),Sample flow (lpm),Bypass flow (lpm),Sample temperature (°C),Ambient temperature (°C),ASC tube jacket temperature (°C),LED temperature (°C),Box temperature (°C),Sample RH (%),Span deviation,Mass concentration (μg/m³),Mass concentration (μg/m³),Mass concentration (μg/m³)
DateTimeUTC,F1_M11,P_M11,Q1_M11,Q2_M11,T1_M11,T2_M11,T3_M11,T4_M11,T5_M11,U1_M11,ZSPAN_M11,X0_M11,X2_M11,X1_M11
2023-02-02 17:00:00,,0832.3,4.99,0.00,23.3,22.2,00.0,32.0,25.1,08.8,0000.0,0005.46,0002.97,0002.50
2023-02-02 17:01:00,,0832.3,5.00,0.00,23.3,22.2,00.0,32.0,25.1,09.1,0000.0,0005.66,0003.03,0002.54
2023-02-02 17:02:00,,0832.3,5.03,0.00,23.3,22.2,00.0,32.0,25.1,09.2,0000.0,0005.70,0003.07,0002.57
2023-02-02 17:03:00,,0832.3,5.04,0.00,23.4,22.2,00.0,32.1,25.1,09.0,0000.0,0005.64,0003.08,0002.60
2023-02-02 17:04:00,,0832.3,5.02,0.00,23.4,22.3,00.0,32.1,25.1,09.1,0000.0,0005.73,0003.12,0002.62
2023-02-02 17:05:00,,0832.4,5.01,0.00,23.4,22.3,00.0,32.1,25.2,08.9,0000.0,0005.84,0003.12,0002.59
2023-02-02 17:06:00,,0832.4,4.98,0.00,23.4,22.3,00.0,32.1,25.2,08.8,0000.0,0005.81,0003.10,0002.56
2023-02-02 17:07:00,,0832.4,4.97,0.00,23.4,22.3,00.0,32.1,25.2,08.8,0000.0,0005.73,0003.08,0002.53
2023-02-02 17:08:00,,0832.5,4.97,0.00,23.4,22.3,00.0,32.1,25.2,08.9,0000.0,0005.45,0003.04,0002.51
2023-02-02 17:09:00,,0832.4,5.01,0.00,23.5,22.4,00.0,32.1,25.2,08.7,0000.0,0004.31,0002.96,0002.52
2023-02-02 17:10:00,,0832.4,5.06,0.00,23.5,22.4,00.0,32.2,25.2,08.7,0000.0,0004.26,0002.97,0002.54
2023-02-02 17:11:00,,0832.4,4.95,0.00,23.5,22.4,00.0,32.2,25.2,08.8,0000.0,0004.20,0002.98,0002.57
2023-02-02 17:12:00,,0832.3,4.96,0.00,23.5,22.4,00.0,32.2,25.3,08.9,0000.0,0004.31,0002.99,0002.60
2023-02-02 17:13:00,,0832.3,5.00,0.00,23.5,22.4,00.0,32.2,25.3,08.8,0000.0,0004.93,0003.03,0002.62
2023-02-02 17:14:00,,0832.3,5.02,0.00,23.5,22.4,00.0,32.2,25.3,08.9,0000.0,0005.07,0003.10,0002.66
2023-02-02 17:15:00,,0832.3,5.01,0.00,23.6,22.5,00.0,32.2,25.3,09.1,0000.0,0005.04,0003.13,0002.70
2023-02-02 17:16:00,,0832.3,5.02,0.00,23.6,22.5,00.0,32.3,25.4,09.0,0000.0,0005.00,0003.16,0002.76
2023-02-02 17:17:00,,0832.3,5.00,0.00,23.6,22.5,00.0,32.3,25.4,09.2,0000.0,0005.12,0003.21,0002.83
2023-02-02 17:18:00,,0832.3,5.02,0.00,23.6,22.5,00.0,32.3,25.4,09.0,0000.0,0005.30,0003.28,0002.96
2023-02-02 17:19:00,,0832.3,4.96,0.00,23.6,22.5,00.0,32.3,25.4,09.0,0000.0,0005.40,0003.35,0003.08
2023-02-02 17:20:00,,0832.4,4.97,0.00,23.6,22.5,00.0,32.3,25.4,08.9,0000.0,0005.67,0003.46,0003.18
2023-02-02 17:21:00,,0832.3,5.02,0.00,23.6,22.5,00.0,32.3,25.5,09.0,0000.0,0006.67,0003.56,0003.25
2023-02-02 17:22:00,,0832.4,5.01,0.00,23.7,22.6,00.0,32.3,25.5,09.2,0000.0,0007.14,0003.67,0003.33
2023-02-02 17:23:00,,0832.4,5.01,0.00,23.7,22.6,00.0,32.4,25.5,09.2,0000.0,0007.13,0003.75,0003.39
2023-02-02 17:24:00,,0832.3,4.96,0.00,23.7,22.6,00.0,32.4,25.5,09.2,0000.0,0006.75,0003.82,0003.45
2023-02-02 17:25:00,,0832.3,5.02,0.00,23.7,22.6,00.0,32.4,25.5,09.4,0000.0,0006.82,0003.86,0003.50
2023-02-02 17:26:00,,0832.3,4.97,0.00,23.7,22.6,00.0,32.4,25.5,09.3,0000.0,0006.83,0003.87,0003.54
2023-02-02 17:27:00,,0832.3,5.01,0.00,23.7,22.6,00.0,32.4,25.5,09.5,0000.0,0006.78,0003.88,0003.57
2023-02-02 17:28:00,,0832.4,5.04,0.00,23.7,22.7,00.0,32.4,25.5,09.4,0000.0,0006.87,0003.93,0003.61
2023-02-02 17:29:00,,0832.3,5.01,0.00,23.7,22.7,00.0,32.4,25.5,09.6,0000.0,0006.98,0003.97,0003.63
2023-02-02 17:30:00,,0832.3,5.00,0.00,23.8,22.7,00.0,32.5,25.5,09.5,0000.0,0007.07,0003.98,0003.64
2023-02-02 17:31:00,,0832.3,4.96,0.00,23.8,22.7,00.0,32.5,25.5,09.5,0000.0,0007.10,0003.96,0003.63
2023-02-02 17:32:00,,0832.3,5.02,0.00,23.8,22.7,00.0,32.5,25.5,09.7,0000.0,0006.27,0003.94,0003.62
2023-02-02 17:33:00,,0832.3,5.00,0.00,23.8,22.7,00.0,32.5,25.6,09.6,0000.0,0006.05,0003.91,0003.62
2023-02-02 17:34:00,,0832.3,4.96,0.00,23.8,22.8,00.0,32.5,25.6,09.7,0000.0,0006.24,0003.92,0003.63
2023-02-02 17:35:00,,0832.3,4.98,0.00,23.8,22.8,00.0,32.5,25.6,10.0,0000.0,0006.34,0003.94,0003.65
2023-02-02 17:36:00,,0832.3,5.04,0.00,23.9,22.8,00.0,32.5,25.6,09.5,0000.0,0006.64,0003.99,0003.69
2023-02-02 17:37:00,,0832.3,4.97,0.00,23.9,22.8,00.0,32.6,25.6,09.4,0000.0,0006.76,0004.02,0003.72
2023-02-02 17:38:00,,0832.3,5.02,0.00,23.9,22.8,00.0,32.6,25.6,09.4,0000.0,0006.86,0004.06,0003.76
2023-02-02 17:39:00,,0832.3,5.00,0.00,23.9,22.8,00.0,32.6,25.7,09.4,0000.0,0006.85,0004.06,0003.77
2023-02-02 17:40:00,,0832.3,5.00,0.00,23.9,22.8,00.0,32.6,25.7,09.2,0000.0,0006.78,0004.06,0003.79
2023-02-02 17:41:00,,0832.3,5.00,0.00,23.9,22.9,00.0,32.6,25.7,08.9,0000.0,0006.97,0004.07,0003.80
2023-02-02 17:42:00,,0832.4,5.04,0.00,23.9,22.9,00.0,32.6,25.7,08.7,0000.0,0006.81,0004.04,0003.80
2023-02-02 17:43:00,,0832.3,5.01,0.00,24.0,22.9,00.0,32.7,25.7,08.7,0000.0,0006.75,0004.02,0003.78
2023-02-02 17:44:00,,0832.3,5.00,0.00,24.0,22.9,00.0,32.7,25.8,08.9,0000.0,0006.69,0003.99,0003.74
2023-02-02 17:45:00,,0832.3,4.99,0.00,24.0,22.9,00.0,32.7,25.8,09.2,0000.0,0007.31,0003.94,0003.70
2023-02-02 17:46:00,,0832.3,4.99,0.00,24.0,22.9,00.0,32.7,25.9,09.7,0000.0,0007.29,0003.91,0003.67
2023-02-02 17:47:00,,0832.2,5.00,0.00,24.0,23.0,00.0,32.7,25.9,09.6,0000.0,0007.25,0003.83,0003.62
2023-02-02 17:48:00,,0832.3,5.03,0.00,24.0,23.0,00.0,32.7,25.9,09.5,0000.0,0007.49,0003.80,0003.57
2023-02-02 17:49:00,,0832.2,5.01,0.00,24.0,23.0,00.0,32.7,25.9,09.6,0000.0,0007.52,0003.77,0003.50
2023-02-02 17:50:00,,0832.2,5.01,0.00,24.1,23.0,00.0,32.8,25.9,09.6,0000.0,0007.48,0003.73,0003.45
2023-02-02 17:51:00,,0832.3,4.97,0.00,24.1,23.0,00.0,32.8,25.9,09.3,0000.0,0007.42,0003.67,0003.39
2023-02-02 17:52:00,,0832.2,5.03,0.00,24.1,23.1,00.0,32.8,26.0,10.2,0000.0,0007.28,0003.62,0003.32
2023-02-02 17:53:00,,0832.3,5.01,0.00,24.1,23.1,00.0,32.8,26.0,10.2,0000.0,0007.20,0003.60,0003.30
2023-02-02 17:54:00,,0832.3,5.02,0.00,24.1,23.1,00.0,32.8,26.0,10.5,0000.0,0007.17,0003.59,0003.29
2023-02-02 17:55:00,,0832.3,5.01,0.00,24.2,23.1,00.0,32.9,26.0,10.0,0000.0,0007.13,0003.59,0003.29
2023-02-02 17:56:00,,0832.3,5.00,0.00,24.2,23.1,00.0,32.9,26.0,09.7,0000.0,0006.68,0003.56,0003.27
2023-02-02 17:57:00,,0832.2,5.00,0.00,24.2,23.2,00.0,32.9,26.0,09.7,0000.0,0006.34,0003.52,0003.23
2023-02-02 17:58:00,,0832.3,5.02,0.00,24.2,23.2,00.0,32.9,26.1,09.7,0000.0,0006.07,0003.50,0003.20
2023-02-02 17:59:00,,0832.4,4.99,0.00,24.2,23.2,00.0,32.9,26.1,09.6,0000.0,0005.53,0003.51,0003.21
